This is the latest recevied weather packets stored in our database for station/object N5SNT-2. If no packets are shown the sender has not sent any weather packets the latest 10 day(s).
| Time | Temp. | Humidity | Pressure | Rain* | Wind** | Luminosity | Snow |
|---|---|---|---|---|---|---|---|
| 1777912643 | 23.33° C | 74% | 1017 hPa | 0 mm | - | 952 W/m² | - |
| 1777912343 | 23.33° C | 74% | 1017 hPa | 0 mm | - | 968 W/m² | - |
| 1777912044 | 22.78° C | 76% | 1017 hPa | 0 mm | - | - | - |
| 1777911744 | 22.78° C | 76% | 1017 hPa | 0 mm | - | 958 W/m² | - |
| 1777911443 | 22.22° C | 76% | 1017 hPa | 0 mm | - | 423 W/m² | - |
| 1777911143 | 22.22° C | 78% | 1017 hPa | 0 mm | - | 409 W/m² | - |
| 1777910843 | 22.22° C | 78% | 1017 hPa | 0 mm | - | 192 W/m² | - |
| 1777910546 | 21.67° C | 78% | 1017 hPa | 0 mm | - | 511 W/m² | - |
| 1777910244 | 21.67° C | 78% | 1017 hPa | 0 mm | - | 370 W/m² | - |
| 1777909944 | 21.67° C | 80% | 1017 hPa | 0 mm | - | 335 W/m² | - |
| 1777909644 | 21.67° C | 80% | 1017 hPa | 0 mm | - | 267 W/m² | - |
| 1777909344 | 21.67° C | 80% | 1017 hPa | 0 mm | - | 281 W/m² | - |
| 1777909044 | 21.67° C | 79% | 1017 hPa | 0 mm | - | 322 W/m² | - |
| 1777908743 | 21.67° C | 79% | 1017 hPa | 0 mm | - | 474 W/m² | - |
| 1777908444 | 21.11° C | 80% | 1017 hPa | 0 mm | - | 380 W/m² | - |
| 1777908144 | 21.67° C | 79% | 1017 hPa | 0 mm | - | 326 W/m² | - |
| 1777907845 | 21.11° C | 79% | 1017 hPa | 0 mm | - | 311 W/m² | - |
| 1777907543 | 20.56° C | 80% | 1017 hPa | 0 mm | - | 406 W/m² | - |
| 1777907244 | 20.56° C | 80% | 1017 hPa | 0 mm | - | 407 W/m² | - |
| 1777906944 | 20° C | 81% | 1017 hPa | 0 mm | - | 522 W/m² | - |
| 1777906647 | 20° C | 81% | 1017 hPa | 0 mm | - | 447 W/m² | - |
| 1777906346 | 20° C | 81% | 1017 hPa | 0 mm | - | 250 W/m² | - |
| 1777906048 | 20° C | 81% | 1017 hPa | 0 mm | - | 236 W/m² | - |
| 1777905748 | 20° C | 81% | 1017 hPa | 0 mm | - | 430 W/m² | - |
| 1777905447 | 19.44° C | 82% | 1018 hPa | 0 mm | - | 475 W/m² | - |
* Rain latest hour (hover to see other rain measurements)
** Current wind speed in m/s (hover to see current wind gust speed)